Location: Antoign�
(47.0844°N, 0.1131°W)
Time: 10:12:55
(UTC+00:00)

USA 234 - Pass Details

Date: 03 March 2021
Orbit: 1102 x 1105 km, 123.0° (Epoch: 08 April)

Event Time Altitude Azimuth Distance (km) Brightness Sun altitude
Exits shadow 21:27:17 54° 341° (NNW) 1,322 3.7 -36.3°
Maximum altitude 21:27:24 54° 337° (NNW) 1,321 3.8 -36.3°
Drops below altitude 10° 21:33:44 10° 263° (W) 2,961 5.9 -37.1°
Sets 21:36:15 0° 259° (WSW) 3,917 6.6 -37.5°
